Location: Cutler
(25.6150°N, 80.3110°W)
Time: 05:11:44
(UTC-04:00)

Vanguard 1 - Pass Details

Date: 01 February 2018
Orbit: 650 x 3833 km, 34.2° (Epoch: 20 May)

Event Time Altitude Azimuth Distance (km) Brightness Sun altitude
Rises 04:07:39 0° 283° (WNW) 4,645 - -40.0°
Reaches altitude 10° 04:10:28 10° 275° (W) 4,002 - -39.4°
Exits shadow 04:20:30 39° 213° (SSW) 3,309 12.4 -37.1°
Maximum altitude 04:20:43 39° 211° (SSW) 3,328 12.4 -37.1°
Drops below altitude 10° 04:37:47 10° 150° (SSE) 6,490 14.6 -33.2°
Sets 04:44:06 0° 144° (SE) 7,795 15.2 -31.8°
